This is the latest recevied weather packets stored in our database for station/object KC7KGF. If no packets are shown the sender has not sent any weather packets the latest 10 day(s).
| Time | Temp. | Humidity | Pressure | Rain* | Wind** | Luminosity | Snow |
|---|---|---|---|---|---|---|---|
| 1777881929 | 15° C | 50% | 1017.8 hPa | 0 mm | - | - | - |
| 1777880124 | 15.56° C | 45% | 1017.9 hPa | 0 mm | - | - | - |
| 1777878330 | 15.56° C | 38% | 1017.8 hPa | 0 mm | - | - | - |
| 1777876531 | 16.11° C | 34% | 1017.7 hPa | 0 mm | - | - | - |
| 1777874733 | 16.67° C | 33% | 1017.8 hPa | 0 mm | - | - | - |
| 1777872928 | 17.22° C | 32% | 1017.9 hPa | 0 mm | - | - | - |
| 1777871126 | 17.78° C | 31% | 1018.1 hPa | 0 mm | - | - | - |
| 1777869339 | 18.33° C | 30% | 1017.8 hPa | 0 mm | - | - | - |
| 1777867527 | 18.89° C | 28% | 1017.3 hPa | 0 mm | - | - | - |
| 1777865731 | 19.44° C | 26% | 1016.6 hPa | 0 mm | - | - | - |
| 1777863940 | 20° C | 27% | 1016.1 hPa | 0 mm | - | - | - |
| 1777862135 | 20° C | 28% | 1015.5 hPa | 0 mm | - | - | - |
| 1777860330 | 21.11° C | 27% | 1015.5 hPa | 0 mm | - | - | - |
| 1777858526 | 21.67° C | 25% | 1015.7 hPa | 0 mm | - | - | - |
| 1777856744 | 22.78° C | 24% | 1015.9 hPa | 0 mm | - | - | - |
| 1777854939 | 23.89° C | 22% | 1015.9 hPa | 0 mm | - | - | - |
| 1777853127 | 23.89° C | 22% | 1015.9 hPa | 0 mm | - | - | - |
| 1777851322 | 23.89° C | 26% | 1016.2 hPa | 0 mm | - | - | - |
| 1777849541 | 23.89° C | 25% | 1016.5 hPa | 0 mm | - | - | - |
| 1777847730 | 24.44° C | 26% | 1016.8 hPa | 0 mm | - | - | - |
| 1777845948 | 24.44° C | 25% | 1017.3 hPa | 0 mm | - | - | - |
| 1777844124 | 25° C | 23% | 1017.8 hPa | 0 mm | - | - | - |
| 1777842328 | 25° C | 21% | 1018.2 hPa | 0 mm | - | - | - |
| 1777840523 | 23.89° C | 25% | 1018.7 hPa | 0 mm | - | - | - |
| 1777838740 | 24.44° C | 27% | 1018.8 hPa | 0 mm | - | - | - |
* Rain latest hour (hover to see other rain measurements)
** Current wind speed in m/s (hover to see current wind gust speed)